Wilmington, DE

8:07 PM EST on November 20, 2019 (GMT -0500)
New Castle County

Weather History for KILG - August, 2019

Change the Weather History Date:

Friday, August 16, 2019

  Actual Average Record
Temperature  
Mean Temperature 79 °F 75 °F  
Max Temperature 86 °F 84 °F 98 °F (1895)
Min Temperature 72 °F 66 °F 52 °F (1979)
Degree Days  
Heating Degree Days 0 0  
Month to date heating degree days 0 0  
Since 1 June heating degree days 5 15  
Since 1 July heating degree days 0 0  
Cooling Degree Days 14 10  
Month to date cooling degree days 205 176  
Year to date cooling degree days 1067 853  
Since 1 June cooling degree days 935 774  
Growing Degree Days 29 (Base 50)    
Moisture  
Dew Point 72 °F    
Average Humidity 75    
Maximum Humidity 93    
Minimum Humidity 57    
Precipitation  
Precipitation 0.00 in 0.11 in 1.84 in (1909)
Month to date precipitation 1.89 1.78  
Year to date precipitation 35.35 27.29  
Snow  
Snow 0.00 in 0.00 in T in (1996)
Month to date snowfall 0.0 0.0  
Since 1 June snowfall 0.0 0.0  
Since 1 July snowfall 0.0 0.0  
Snow Depth 0.00 in    
Sea Level Pressure  
Sea Level Pressure 30.00 in    
Wind  
Wind Speed 8 mph (ESE)    
Max Wind Speed 17 mph    
Max Gust Speed 21 mph    
Visibility 10 miles    
Events      
T = Trace of Precipitation, MM = Missing Value Source: NWS Daily Summary

Daily Weather History Graph

Daily Weather History Graph

Search for Another Location

Airport or City:

Astronomy

Aug. 16, 2019 Rise Set
Actual Time 6:15 AM EDT 7:57 PM EDT
Civil Twilight 5:46 AM EDT 8:26 PM EDT
Nautical Twilight 5:11 AM EDT 9:00 PM EDT
Astronomical Twilight 4:34 AM EDT 9:37 PM EDT
Moon 8:55 PM EDT (8/16) 7:04 AM EDT (8/16)
Length of Visible Light 14h 39m
Length of Day
13h 42m
Full, 99% of the Moon is Illuminated
Aug 16
Full
Aug 23
Last Quarter
Aug 30
New
Sep 5
First Quarter
Sep 14
Full

Hourly Weather History & Observations

Time (EDT) Temp. Heat Index Dew Point Humidity Pressure Visibility Wind Dir Wind Speed Gust Speed Precip Events Conditions
12:51 AM 72.0 °F - 69.1 °F 91% 29.98 in 10.0 mi SE 6.9 mph - N/A   Clear
1:15 AM 73.0 °F - 70.0 °F 90% 30.00 in 10.0 mi ENE 4.6 mph - N/A   Mostly Cloudy
1:51 AM 72.0 °F - 69.1 °F 91% 30.00 in 10.0 mi NNE 5.8 mph - N/A   Overcast
2:51 AM 73.0 °F - 69.1 °F 87% 30.00 in 10.0 mi NE 4.6 mph - N/A   Overcast
3:51 AM 73.0 °F - 69.1 °F 87% 30.00 in 10.0 mi ENE 6.9 mph - N/A   Overcast
4:51 AM 73.0 °F - 70.0 °F 90% 29.99 in 10.0 mi NE 6.9 mph - N/A   Overcast
5:51 AM 73.9 °F - 70.0 °F 87% 30.00 in 10.0 mi ENE 8.1 mph - N/A   Overcast
6:05 AM 73.0 °F - 70.0 °F 90% 30.01 in 10.0 mi ENE 6.9 mph - N/A   Overcast
6:33 AM 73.0 °F - 70.0 °F 90% 30.02 in 10.0 mi ENE 8.1 mph - N/A   Overcast
6:49 AM 73.4 °F - 69.8 °F 88% 30.02 in 10.0 mi NE 6.9 mph - N/A   Overcast
6:51 AM 73.0 °F - 70.0 °F 90% 30.01 in 10.0 mi NE 5.8 mph - N/A   Overcast
7:18 AM 73.9 °F - 70.0 °F 87% 30.02 in 10.0 mi ENE 3.5 mph - N/A   Overcast
7:51 AM 73.9 °F - 70.0 °F 87% 30.02 in 10.0 mi East 5.8 mph - N/A   Overcast
8:05 AM 73.9 °F - 70.0 °F 87% 30.02 in 10.0 mi ENE 6.9 mph - N/A   Scattered Clouds
8:25 AM 75.9 °F - 70.0 °F 82% 30.02 in 10.0 mi ENE 5.8 mph - N/A   Mostly Cloudy
8:51 AM 77.0 °F - 71.1 °F 82% 30.02 in 10.0 mi ENE 6.9 mph - N/A   Scattered Clouds
9:51 AM 79.0 °F - 71.1 °F 77% 30.02 in 10.0 mi North - - N/A   Partly Cloudy
10:51 AM 81.0 °F 84.9 °F 71.1 °F 72% 30.03 in 10.0 mi Variable 3.5 mph - N/A   Scattered Clouds
11:04 AM 81.0 °F 84.9 °F 71.1 °F 72% 30.03 in 10.0 mi SSE 4.6 mph - N/A   Mostly Cloudy
11:40 AM 82.9 °F 87.5 °F 71.1 °F 67% 30.03 in 10.0 mi South 6.9 mph - N/A   Mostly Cloudy
11:51 AM 82.9 °F 87.5 °F 71.1 °F 67% 30.03 in 10.0 mi South 4.6 mph - N/A   Scattered Clouds
12:51 PM 82.9 °F 87.0 °F 70.0 °F 65% 30.01 in 10.0 mi SSE 4.6 mph - N/A   Mostly Cloudy
1:51 PM 84.9 °F 88.2 °F 68.0 °F 57% 30.01 in 10.0 mi SSE 5.8 mph - N/A   Partly Cloudy
2:51 PM 84.9 °F 90.7 °F 72.0 °F 65% 30.01 in 10.0 mi South 5.8 mph - N/A   Partly Cloudy
3:51 PM 86.0 °F 90.7 °F 70.0 °F 59% 29.99 in 10.0 mi Variable 6.9 mph - N/A   Partly Cloudy
4:51 PM 84.9 °F 90.7 °F 72.0 °F 65% 29.98 in 10.0 mi SSE 15.0 mph - N/A   Partly Cloudy
5:51 PM 84.0 °F 89.6 °F 72.0 °F 67% 29.98 in 10.0 mi South 11.5 mph - N/A   Clear
6:51 PM 82.0 °F 87.9 °F 73.9 °F 76% 29.97 in 10.0 mi South 15.0 mph - N/A   Clear
7:51 PM 80.1 °F 85.1 °F 75.0 °F 85% 29.97 in 10.0 mi SSE 11.5 mph - N/A   Partly Cloudy
8:11 PM 80.1 °F 85.1 °F 75.0 °F 85% 29.97 in 10.0 mi SE 9.2 mph - N/A   Mostly Cloudy
8:38 PM 79.0 °F - 75.0 °F 88% 29.98 in 10.0 mi SE 9.2 mph - N/A   Scattered Clouds
8:51 PM 79.0 °F - 75.0 °F 88% 29.99 in 10.0 mi SSE 9.2 mph - N/A   Mostly Cloudy
9:00 PM 79.0 °F - 75.0 °F 88% 29.99 in 10.0 mi SSE 11.5 mph - N/A   Mostly Cloudy
9:10 PM 79.0 °F - 75.0 °F 88% 29.99 in 10.0 mi South 12.7 mph - N/A   Mostly Cloudy
9:51 PM 79.0 °F - 75.0 °F 88% 30.00 in 10.0 mi SE 6.9 mph - N/A   Mostly Cloudy
10:02 PM 79.0 °F - 75.0 °F 88% 30.01 in 10.0 mi SE 5.8 mph - N/A   Overcast
10:48 PM 78.8 °F - 75.2 °F 89% 30.01 in 10.0 mi SE 8.1 mph - N/A   Overcast
10:51 PM 78.1 °F - 75.0 °F 90% 30.01 in 10.0 mi ESE 6.9 mph - N/A   Overcast
11:51 PM 77.0 °F - 73.9 °F 90% 30.01 in 10.0 mi ESE 8.1 mph - N/A   Overcast